Hourly Weather Kozychanka

Today, 22 October, Thursday

Time Temperature Precipitation Wind Pressure Humidity
00:00 +8°C° 0 mm 2 mps 748 mmHg 71%
01:00 +9°C° 0 mm 2 mps 748 mmHg 68%
02:00 +10°C° 0 mm 1 mps 748 mmHg 65%
03:00 +10°C° 0 mm 1 mps 747 mmHg 64%
04:00 +9°C° 0 mm 2 mps 747 mmHg 64%
05:00 +9°C° 0 mm 2 mps 747 mmHg 63%
06:00 +9°C° 0 mm 2 mps 747 mmHg 62%
07:00 +9°C° 0 mm 2 mps 747 mmHg 62%
08:00 +9°C° 0 mm 3 mps 747 mmHg 61%
09:00 +11°C° 0 mm 3 mps 747 mmHg 57%
10:00 +12°C° 0 mm 4 mps 747 mmHg 53%
11:00 +14°C° 0 mm 4 mps 747 mmHg 48%
12:00 +15°C° 0 mm 4 mps 747 mmHg 48%
13:00 +17°C° 0 mm 4 mps 747 mmHg 48%
14:00 +18°C° 0 mm 4 mps 747 mmHg 48%
15:00 +17°C° 0 mm 4 mps 747 mmHg 54%
16:00 +15°C° 0 mm 4 mps 747 mmHg 59%
17:00 +14°C° 0 mm 3 mps 746 mmHg 65%
18:00 +13°C° 0 mm 3 mps 747 mmHg 66%
19:00 +13°C° 0 mm 4 mps 747 mmHg 68%
20:00 +13°C° 0 mm 4 mps 747 mmHg 69%
21:00 +13°C° 0 mm 4 mps 747 mmHg 71%
22:00 +12°C° 0 mm 4 mps 747 mmHg 74%
23:00 +12°C° 0 mm 4 mps 747 mmHg 76%

Tomorrow, 23 October, Friday

Time Temperature Precipitation Wind Pressure Humidity
00:00 +12°C° 0 mm 3 mps 747 mmHg 77%
01:00 +11°C° 0 mm 3 mps 747 mmHg 78%
02:00 +11°C° 0 mm 3 mps 747 mmHg 80%
03:00 +12°C° 0 mm 2 mps 747 mmHg 80%
04:00 +12°C° 0 mm 2 mps 747 mmHg 80%
05:00 +10°C° 0 mm 2 mps 747 mmHg 80%
06:00 +12°C° 0 mm 2 mps 746 mmHg 78%
07:00 +12°C° 0 mm 2 mps 746 mmHg 75%
08:00 +12°C° 0 mm 2 mps 746 mmHg 73%
09:00 +14°C° 0 mm 2 mps 746 mmHg 67%
10:00 +14°C° 0 mm 3 mps 746 mmHg 60%
11:00 +17°C° 0 mm 3 mps 746 mmHg 54%
12:00 +17°C° 0 mm 3 mps 745 mmHg 53%
13:00 +18°C° 0 mm 3 mps 745 mmHg 51%
14:00 +18°C° 0 mm 3 mps 745 mmHg 49%
15:00 +17°C° 0 mm 2 mps 744 mmHg 54%
16:00 +16°C° 0 mm 2 mps 744 mmHg 59%
17:00 +15°C° 0 mm 1 mps 744 mmHg 64%
18:00 +15°C° 0 mm 1 mps 744 mmHg 64%
19:00 +14°C° 0 mm 1 mps 744 mmHg 64%
20:00 +14°C° 0 mm 2 mps 744 mmHg 64%
21:00 +14°C° 0 mm 2 mps 744 mmHg 67%
22:00 +14°C° 0 mm 2 mps 744 mmHg 69%
23:00 +13°C° 0 mm 2 mps 744 mmHg 71%

Day after tomorrow, 24 October, Saturday

Time Temperature Precipitation Wind Pressure Humidity
00:00 +13°C° 0 mm 2 mps 744 mmHg 74%
01:00 +13°C° 0 mm 2 mps 744 mmHg 78%
02:00 +12°C° 0 mm 2 mps 744 mmHg 81%
03:00 +12°C° 0 mm 2 mps 743 mmHg 82%
04:00 +12°C° 0 mm 2 mps 743 mmHg 84%
05:00 +12°C° 0 mm 2 mps 743 mmHg 85%
06:00 +12°C° 0 mm 1 mps 743 mmHg 85%
07:00 +12°C° 0 mm 1 mps 743 mmHg 85%
08:00 +13°C° 0 mm 1 mps 743 mmHg 85%
09:00 +14°C° 0 mm 1 mps 743 mmHg 80%
10:00 +15°C° 0 mm 1 mps 743 mmHg 75%
11:00 +16°C° 0 mm 1 mps 743 mmHg 71%
12:00 +16°C° 0 mm 2 mps 743 mmHg 68%
13:00 +17°C° 0 mm 2 mps 743 mmHg 64%
14:00 +18°C° 0 mm 3 mps 743 mmHg 61%
15:00 +17°C° 0 mm 3 mps 743 mmHg 64%
16:00 +16°C° 0 mm 2 mps 742 mmHg 68%
17:00 +15°C° 0 mm 2 mps 742 mmHg 71%
18:00 +15°C° 0 mm 2 mps 742 mmHg 72%
19:00 +14°C° 0 mm 2 mps 743 mmHg 74%
20:00 +14°C° 0 mm 2 mps 743 mmHg 75%
21:00 +12°C° 0 mm 3 mps 743 mmHg 77%
22:00 +12°C° 0 mm 3 mps 743 mmHg 79%
23:00 +11°C° 0 mm 3 mps 743 mmHg 81%

, 25 October, Sunday

Time Temperature Precipitation Wind Pressure Humidity
00:00 +11°C° 0 mm 3 mps 743 mmHg 84%
01:00 +11°C° 0 mm 3 mps 744 mmHg 88%
02:00 +11°C° 0 mm 4 mps 744 mmHg 91%
03:00 +11°C° 0 mm 4 mps 744 mmHg 89%
04:00 +12°C° 0 mm 3 mps 745 mmHg 88%
05:00 +12°C° 0 mm 3 mps 746 mmHg 86%
06:00 +11°C° 0 mm 3 mps 746 mmHg 87%
07:00 +11°C° 0 mm 3 mps 746 mmHg 89%
08:00 +10°C° 0 mm 3 mps 746 mmHg 90%
09:00 +11°C° 0 mm 3 mps 747 mmHg 84%
10:00 +12°C° 0 mm 3 mps 747 mmHg 78%
11:00 +14°C° 0 mm 3 mps 748 mmHg 72%
12:00 +14°C° 0 mm 3 mps 748 mmHg 70%
13:00 +14°C° 0 mm 3 mps 748 mmHg 69%
14:00 +16°C° 0 mm 3 mps 748 mmHg 67%
15:00 +15°C° 0 mm 2 mps 748 mmHg 71%
16:00 +14°C° 0 mm 2 mps 748 mmHg 75%
17:00 +12°C° 0 mm 1 mps 748 mmHg 79%
18:00 +12°C° 0 mm 1 mps 748 mmHg 83%
19:00 +10°C° 0 mm 2 mps 749 mmHg 86%
20:00 +9°C° 0 mm 2 mps 749 mmHg 89%
21:00 +9°C° 0 mm 2 mps 749 mmHg 90%
22:00 +8°C° 0 mm 2 mps 749 mmHg 91%
23:00 +8°C° 0 mm 2 mps 749 mmHg 92%

25 October, Sunday

Time Temperature Precipitation Wind Pressure Humidity
00:00 +11°C° 0 mm 3 mps 743 mmHg 84%
01:00 +11°C° 0 mm 3 mps 744 mmHg 88%
02:00 +11°C° 0 mm 4 mps 744 mmHg 91%
03:00 +11°C° 0 mm 4 mps 744 mmHg 89%
04:00 +12°C° 0 mm 3 mps 745 mmHg 88%
05:00 +12°C° 0 mm 3 mps 746 mmHg 86%
06:00 +11°C° 0 mm 3 mps 746 mmHg 87%
07:00 +11°C° 0 mm 3 mps 746 mmHg 89%
08:00 +10°C° 0 mm 3 mps 746 mmHg 90%
09:00 +11°C° 0 mm 3 mps 747 mmHg 84%
10:00 +12°C° 0 mm 3 mps 747 mmHg 78%
11:00 +14°C° 0 mm 3 mps 748 mmHg 72%
12:00 +14°C° 0 mm 3 mps 748 mmHg 70%
13:00 +14°C° 0 mm 3 mps 748 mmHg 69%
14:00 +16°C° 0 mm 3 mps 748 mmHg 67%
15:00 +15°C° 0 mm 2 mps 748 mmHg 71%
16:00 +14°C° 0 mm 2 mps 748 mmHg 75%
17:00 +12°C° 0 mm 1 mps 748 mmHg 79%
18:00 +12°C° 0 mm 1 mps 748 mmHg 83%
19:00 +10°C° 0 mm 2 mps 749 mmHg 86%
20:00 +9°C° 0 mm 2 mps 749 mmHg 89%
21:00 +9°C° 0 mm 2 mps 749 mmHg 90%
22:00 +8°C° 0 mm 2 mps 749 mmHg 91%
23:00 +8°C° 0 mm 2 mps 749 mmHg 92%

26 October, Monday

Time Temperature Precipitation Wind Pressure Humidity
00:00 +8°C° 0 mm 2 mps 749 mmHg 93%
01:00 +7°C° 0 mm 2 mps 749 mmHg 93%
02:00 +7°C° 0 mm 2 mps 749 mmHg 93%
03:00 +7°C° 0 mm 2 mps 750 mmHg 94%
04:00 +7°C° 0 mm 2 mps 750 mmHg 94%
05:00 +6°C° 0 mm 2 mps 750 mmHg 95%
06:00 +7°C° 0 mm 2 mps 750 mmHg 94%
07:00 +7°C° 0 mm 3 mps 750 mmHg 93%
08:00 +7°C° 0 mm 3 mps 750 mmHg 92%
09:00 +9°C° 0 mm 3 mps 750 mmHg 86%
10:00 +10°C° 0 mm 3 mps 750 mmHg 80%
11:00 +12°C° 0 mm 4 mps 750 mmHg 73%
12:00 +13°C° 0 mm 4 mps 749 mmHg 71%
13:00 +13°C° 0 mm 4 mps 749 mmHg 68%
14:00 +14°C° 0 mm 4 mps 749 mmHg 65%
15:00 +13°C° 0 mm 4 mps 748 mmHg 69%
16:00 +12°C° 0 mm 4 mps 748 mmHg 73%
17:00 +11°C° 0 mm 4 mps 748 mmHg 76%
18:00 +11°C° 0 mm 4 mps 748 mmHg 74%
19:00 +11°C° 0 mm 4 mps 748 mmHg 73%
20:00 +12°C° 0 mm 5 mps 748 mmHg 71%
21:00 +12°C° 0 mm 5 mps 748 mmHg 70%
22:00 +12°C° 0 mm 5 mps 748 mmHg 69%
23:00 +12°C° 0 mm 5 mps 748 mmHg 68%

27 October, Tuesday

Time Temperature Precipitation Wind Pressure Humidity
00:00 +12°C° 0 mm 4 mps 748 mmHg 68%
01:00 +12°C° 0 mm 4 mps 748 mmHg 68%
02:00 +11°C° 0 mm 4 mps 747 mmHg 68%
03:00 +11°C° 0 mm 4 mps 747 mmHg 70%
04:00 +11°C° 0 mm 4 mps 747 mmHg 71%
05:00 +11°C° 0 mm 4 mps 747 mmHg 73%
06:00 +10°C° 0.1 mm 5 mps 747 mmHg 73%
07:00 +10°C° 0.1 mm 5 mps 747 mmHg 73%
08:00 +10°C° 0.1 mm 5 mps 748 mmHg 73%
09:00 +11°C° 0.1 mm 4 mps 748 mmHg 71%
10:00 +12°C° 0.1 mm 4 mps 748 mmHg 70%
11:00 +13°C° 0.1 mm 4 mps 748 mmHg 68%
12:00 +13°C° 0 mm 4 mps 748 mmHg 67%
13:00 +14°C° 0 mm 4 mps 748 mmHg 66%
14:00 +15°C° 0 mm 4 mps 747 mmHg 65%
15:00 +15°C° 0 mm 4 mps 747 mmHg 68%
16:00 +14°C° 0 mm 3 mps 747 mmHg 71%
17:00 +13°C° 0 mm 3 mps 747 mmHg 75%
18:00 +13°C° 0 mm 3 mps 747 mmHg 74%
19:00 +12°C° 0 mm 4 mps 747 mmHg 74%
20:00 +12°C° 0 mm 4 mps 747 mmHg 73%
21:00 +12°C° 0 mm 4 mps 747 mmHg 74%
22:00 +11°C° 0 mm 3 mps 747 mmHg 76%
23:00 +11°C° 0 mm 3 mps 747 mmHg 77%
Show more